Location: Fort Wayne
(41.1310°N, 85.1290°W)
Time: 17:24:10
(UTC-04:00)

Vanguard 3 - Visible Passes

Search period start: 17 April 2014 00:00
Search period end: 27 April 2014 00:00
Orbit: 507 x 3281 km, 33.4° (Epoch: 16 April)

Date Brightness Start Highest point End Pass type
(mag) Time Alt. Az. Time Alt. Az. Time Alt. Az.
18 Apr 11.5 06:09:17 10° SSE 06:19:00 16° SE 06:28:44 10° ESE visible
20 Apr 11.3 05:54:55 10° S 06:06:23 20° SE 06:18:20 10° E visible
22 Apr 11.1 05:41:17 10° S 05:53:41 24° SE 06:07:14 10° E visible
23 Apr 11.2 04:34:42 10° SSE 04:41:04 13° SE 04:47:56 10° ESE visible
24 Apr 10.9 05:28:09 10° S 05:40:56 27° SE 05:55:41 10° E visible
25 Apr 11.0 04:20:10 10° SSE 04:28:22 16° SE 04:37:44 10° E visible
26 Apr 10.7 05:15:23 10° SSW 05:28:11 31° SE 05:43:49 10° E visible
